Location: Hradec Kralove
(50.2170°N, 15.8330°E)
Time: 05:04:26
(UTC+01:00)

N. Korean satellite - Pass Details

Date: 05 December 2022
Orbit: 407 x 441 km, 97.3° (Epoch: 05 February)

Event Time Altitude Azimuth Distance (km) Brightness Sun altitude
Rises 06:50:02 0° 355° (N) 2,526 9.9 -7.6°
Reaches altitude 10° 06:53:16 10° 322° (NW) 1,635 8.7 -7.1°
Maximum altitude 06:54:32 12° 301° (WNW) 1,528 8.4 -7.0°
Drops below altitude 10° 06:55:48 10° 279° (W) 1,623 8.6 -6.8°
Sets 06:58:59 0° 246° (WSW) 2,479 9.8 -6.3°
